This is the latest recevied weather packets stored in our database for station/object KB4NWJ. If no packets are shown the sender has not sent any weather packets the latest 10 day(s).
| Time | Temp. | Humidity | Pressure | Rain* | Wind** | Luminosity | Snow |
|---|---|---|---|---|---|---|---|
| 1777856804 | 13.89° C | 62% | 1018.8 hPa | 0 mm | - | 0 W/m² | - |
| 1777856499 | 14.44° C | 61% | 1018.6 hPa | 0 mm | - | 0 W/m² | - |
| 1777856197 | 14.44° C | 60% | 1018.8 hPa | 0 mm | - | 0 W/m² | - |
| 1777855893 | 15° C | 59% | 1018.6 hPa | 0 mm | - | 0 W/m² | - |
| 1777855592 | 15° C | 57% | 1018.7 hPa | 0 mm | - | 0 W/m² | - |
| 1777855289 | 15° C | 56% | 1018.6 hPa | 0 mm | - | 0 W/m² | - |
| 1777854985 | 15.56° C | 54% | 1018.7 hPa | 0 mm | - | 0 W/m² | - |
| 1777854681 | 15.56° C | 54% | 1018.4 hPa | 0 mm | - | 0 W/m² | - |
| 1777854378 | 16.11° C | 52% | 1018.5 hPa | 0 mm | - | 1 W/m² | - |
| 1777854076 | 16.11° C | 51% | 1018.7 hPa | 0 mm | - | 3 W/m² | - |
| 1777853774 | 16.67° C | 51% | 1018.5 hPa | 0 mm | - | 5 W/m² | - |
| 1777853469 | 17.22° C | 51% | 1018.4 hPa | 0 mm | - | 7 W/m² | - |
| 1777853167 | 17.22° C | 50% | 1018.5 hPa | 0 mm | - | 10 W/m² | - |
| 1777852864 | 17.22° C | 48% | 1018.4 hPa | 0 mm | - | 12 W/m² | - |
| 1777852562 | 17.78° C | 47% | 1018.7 hPa | 0 mm | - | 14 W/m² | - |
| 1777852259 | 17.78° C | 47% | 1018.4 hPa | 0 mm | - | 17 W/m² | - |
| 1777851956 | 17.78° C | 47% | 1018.4 hPa | 0 mm | - | 19 W/m² | - |
| 1777851654 | 18.33° C | 49% | 1018.4 hPa | 0 mm | - | 22 W/m² | - |
| 1777851351 | 18.33° C | 46% | 1018.3 hPa | 0 mm | - | 23 W/m² | - |
| 1777851047 | 18.33° C | 44% | 1018.4 hPa | 0 mm | - | 26 W/m² | - |
| 1777850744 | 18.89° C | 45% | 1018.4 hPa | 0 mm | - | 28 W/m² | - |
| 1777850441 | 18.89° C | 45% | 1018.3 hPa | 0 mm | - | 29 W/m² | - |
| 1777850139 | 18.89° C | 42% | 1018.4 hPa | 0 mm | - | 30 W/m² | - |
| 1777849835 | 18.89° C | 43% | 1018.5 hPa | 0 mm | - | 32 W/m² | - |
| 1777849532 | 18.89° C | 44% | 1018.4 hPa | 0 mm | - | 33 W/m² | - |
* Rain latest hour (hover to see other rain measurements)
** Current wind speed in m/s (hover to see current wind gust speed)